Location: Goudie Road
(49.9333°N, 119.0750°W)
Time: 23:19:00
(UTC-07:00)

Daily predictions for brighter satellites

Satellite Brightness Start Highest point End
(mag) Time Altitude Azimuth Time Altitude Azimuth Time Altitude Azimuth
Cosmos 2344 4.4 21:37:32 10° WSW 21:45:22 68° NW 21:55:02 10° NE
SL-08 RB Rocket 4.0 21:47:39 10° SE 21:51:59 53° ENE 21:56:23 10° N
ATLAS 3B R/B 4.1 21:45:49 10° NW 21:52:25 35° NNE 21:58:39 10° E
Cosmos 2219 4.0 21:47:45 10° SSE 21:52:48 32° ESE 21:57:50 10° NE
Cosmos 1726 3.1 21:49:49 10° N 21:53:18 34° ENE 21:56:46 10° SE
Cosmos 2322 4.0 21:50:34 10° NNW 21:56:18 72° WSW 22:01:59 10° SSE
Cosmos 2237 Rocket 3.5 21:53:45 10° NNW 21:58:47 31° NE 22:03:48 10° ESE
SPOT 1/Viking Rocket 3.6 21:53:57 10° SSE 21:59:06 87° ENE 22:04:18 10° NNW
Cosmos 1680 Rocket 3.7 21:53:54 10° NNW 21:59:09 77° WSW 22:04:24 10° SSE
NOSS 3-1 (C) 4.4 21:55:36 10° SSE 22:00:24 26° ESE 22:05:36 10° ENE
AVUM R/B 2.8 21:58:37 10° S 22:00:53 44° ESE 22:03:23 10° NE
Cosmos 2322 Rocket 4.0 21:57:14 10° NW 22:01:48 26° WSW 22:06:21 10° SSW
Cosmos 1908 4.2 21:58:31 10° NNW 22:02:16 47° W 22:06:02 10° SSW
Cosmos 304 Rocket 4.2 22:01:09 10° NNW 22:05:55 63° WSW 22:10:39 10° S
USA 245 2.3 22:04:24 10° S 22:07:02 69° WSW 22:09:22 10° NNW
SL-16 R/B 4.1 22:06:41 10° NW 22:11:08 24° WSW 22:15:33 10° SSW
CZ-4B R/B 3.6 22:06:02 10° NNE 22:11:20 72° ESE 22:16:34 10° S
Cosmos 2360 Rocket 2.8 22:07:30 10° NW 22:13:00 53° WSW 22:18:29 10° S
Cosmos 1898 Rocket 4.4 22:14:00 10° SSE 22:18:28 30° E 22:22:59 10° NE
CARTOSAT-1 4.0 22:14:27 10° SE 22:18:33 50° ENE 22:22:45 10° N
Landsat 7 3.9 22:14:01 10° SSE 22:18:44 70° ENE 22:23:30 10° N
NOAA 11 4.3 22:13:46 10° SSE 22:19:12 82° WSW 22:24:43 10° NNW
Cosmos 2315 Rocket 4.2 22:13:39 10° NNW 22:19:54 77° W 22:26:04 10° S
Meteor 1-11 4.4 22:17:15 10° S 22:22:55 59° E 22:28:32 10° NNE
Cosmos 1633 Rocket 3.5 22:19:28 10° SSE 22:23:38 44° E 22:27:48 10° NNE
Sich 1 3.5 22:19:43 10° SSE 22:23:58 46° E 22:28:12 10° NNE
Cosmos 1674 3.9 22:23:22 10° SSW 22:27:03 44° WNW 22:30:47 10° N
Spot 4 4.3 22:23:44 12° SE 22:28:06 51° ENE 22:32:49 10° N
Cosmos 292 Rocket 4.0 22:23:58 10° NNW 22:28:43 63° ENE 22:32:54 13° SE
Meteor 1-4 Rocket 2.8 22:26:00 10° N 22:29:47 61° ENE 22:32:55 14° SSE
Cosmos 2151 3.5 22:25:58 10° SSW 22:30:08 61° WNW 22:34:20 10° N
Cosmos 1300 2.9 22:27:34 10° NNW 22:31:25 70° W 22:35:14 10° S
Terra 1.9 22:30:16 12° SSE 22:34:36 71° ENE 22:39:22 10° N
Meteor 2-10 4.4 22:30:12 10° N 22:35:51 64° ENE 22:40:53 13° SSE
Cosmos 1626 3.8 22:34:25 13° SE 22:36:34 20° E 22:39:25 10° NE
Cosmos 1805 Rocket 3.6 22:32:29 10° S 22:36:57 87° W 22:41:26 10° N
USA 234 4.3 22:31:50 10° ENE 22:38:04 48° N 22:44:18 10° WNW
CZ-4 R/B 4.0 22:35:27 10° NNE 22:40:28 87° WNW 22:45:22 10° SSW
USA 32 4.1 22:36:54 10° N 22:42:12 82° E 22:47:01 12° S
USA 229 DEB 3.9 22:35:51 10° SW 22:42:49 80° NW 22:49:54 10° NE
SeaSat 1 3.3 22:38:15 10° ESE 22:42:52 42° NE 22:47:31 10° NNW
Cosmos 2227 Rocket 3.5 22:39:31 14° SE 22:42:55 23° ESE 22:47:13 10° NE
USA 229 3.9 22:35:57 10° SW 22:42:55 80° NW 22:50:00 10° NE
Cosmos 2333 Rocket 2.5 22:38:31 10° NNW 22:44:15 63° ENE 22:49:11 14° SE
Lacrosse 4 Rocket 3.4 22:42:33 10° NNW 22:46:10 24° NE 22:49:49 10° E
Cosmos 1869 4.2 22:42:24 10° N 22:46:11 37° ENE 22:49:01 16° SE
CZ-4C R/B 3.6 22:43:31 12° S 22:46:40 53° W 22:50:05 10° NNW
SL-16 R/B 3.4 22:44:53 10° NNW 22:50:03 34° NE 22:55:11 10° ESE
Cosmos 1707 Rocket 4.4 22:46:25 10° NNW 22:50:36 47° W 22:54:47 10° SSW
BREEZE-M DEB (TANK) 4.1 22:31:34 10° W 22:51:16 88° S 22:55:46 10° E
Nadezhda 1 Rocket 4.0 22:45:52 10° N 22:51:58 71° ENE 22:57:05 15° SSE
Cosmos 1455 2.5 22:50:43 10° N 22:54:26 52° ENE 22:56:59 19° SSE
COSMOS 2428 3.3 22:50:19 10° NW 22:55:47 50° WSW 23:00:36 13° S
Cosmos 1666 Rocket 3.8 22:54:37 10° SSW 22:59:00 71° W 23:03:27 10° N
Cosmos 2058 3.8 22:56:49 10° SSW 23:00:47 46° WNW 23:04:47 10° N
NOSS 3-1 (A) 3.7 22:56:35 10° SSW 23:02:19 50° ESE 23:08:42 10° NE
Cosmos 1745 Rocket 4.0 23:01:49 12° S 23:07:43 79° E 23:13:55 10° NNE
Cosmos 2298 Rocket 4.0 23:03:55 10° SSW 23:09:15 87° ESE 23:14:37 10° NNE
Cosmos 2297 Rocket 3.3 23:07:31 17° SE 23:10:25 26° ESE 23:15:02 10° NE
CZ-4C R/B 4.3 23:06:28 10° NW 23:12:14 32° NNE 23:18:39 10° E
Cosmos 1470 Rocket 3.5 23:09:03 17° S 23:12:16 69° E 23:16:36 10° NNE
Cosmos 1933 Rocket 3.6 23:10:27 17° S 23:13:48 69° E 23:18:16 10° NNE
Cosmos 2219 Rocket 2.4 23:10:30 10° NNW 23:16:03 65° WSW 23:20:07 19° SSE
Cosmos 1709 Rocket 4.5 23:12:07 18° SSE 23:16:23 44° E 23:22:07 10° NNE
Okean 1-7 4.5 23:12:50 10° NNE 23:16:29 26° ENE 23:19:09 15° ESE
Cosmos 220 Rocket 4.1 23:15:38 16° S 23:18:58 61° ESE 23:23:22 10° NNE
COSMOS 2455 3.3 23:14:08 10° NNW 23:20:07 60° NE 23:25:14 14° SE
SL-14 R/B 4.5 23:16:54 10° SW 23:20:39 41° WNW 23:24:29 10° N
GEOS 3 Rocket 3.7 23:16:47 16° SE 23:21:04 78° NE 23:26:17 10° NW
Cosmos 1703 3.5 23:18:14 14° SSW 23:21:33 68° WNW 23:25:28 10° N
Cosmos 1937 Rocket 3.5 23:16:58 12° SSW 23:21:45 72° ESE 23:26:57 10° NNE
Cosmos 1271 Rocket 3.9 23:18:56 10° NNW 23:22:28 36° W 23:25:18 14° SSW
IGS 5A 4.4 23:20:24 15° SSW 23:23:33 42° W 23:27:32 10° NNW
ATLAS 2AS CENTAUR R/B 3.6 23:19:58 16° S 23:25:14 37° ESE 23:32:26 10° NE
H-2A R/B 3.1 23:21:57 12° SSW 23:26:32 42° W 23:31:41 10° NNW
Cosmos 389 Rocket 4.1 23:24:44 10° N 23:27:47 25° ENE 23:29:41 16° ESE
Cosmos 1726 4.3 23:25:36 10° NW 23:28:30 21° W 23:31:22 10° SW
Cosmos 1980 3.8 23:24:13 10° NNW 23:29:51 70° WSW 23:33:40 21° SSE
Cosmos 2181 Rocket 4.2 23:24:47 10° N 23:31:07 66° ENE 23:35:40 20° SSE
Cosmos 1269 Rocket 4.2 23:27:43 10° NNW 23:33:03 68° ENE 23:36:40 21° SE
Cosmos 1933 3.5 23:29:54 10° N 23:33:56 61° ENE 23:36:07 25° SSE
Cosmos 2219 4.1 23:31:08 10° SW 23:36:44 52° NW 23:42:22 10° NNE
Cosmos 990 Rocket 3.9 23:33:28 17° S 23:37:25 70° ESE 23:42:34 10° NNE
Cosmos 1386 Rocket 4.4 23:33:46 15° S 23:38:49 84° W 23:44:53 10° N
NOSS 0 Rocket 4.4 23:35:21 10° NW 23:41:16 50° WSW 23:45:22 20° S
Cosmos 2237 Rocket 2.5 23:37:37 10° NW 23:43:14 61° WSW 23:46:53 22° S
ATLAS 3B R/B 2.7 23:36:54 10° NW 23:44:07 85° NE 23:49:26 17° SE
USA 238 DEB 4.3 23:38:59 10° NW 23:45:56 56° NE 23:52:49 10° ESE
USA 238 4.3 23:39:06 10° NW 23:46:02 56° NE 23:52:55 10° ESE
Cosmos 1862 Rocket 4.4 23:44:43 10° NNW 23:48:52 42° W 23:51:39 18° SSW
Cosmos 2082 3.7 23:45:28 18° SSW 23:49:46 66° ESE 23:55:28 10° NNE
NOSS 3-1 (C) 3.7 23:44:30 10° SW 23:50:32 76° NW 23:57:24 10° NE
CZ-4B R/B 2.5 23:51:29 23° ESE 23:53:07 38° ENE 23:56:20 10° N
